星链-2404 (STARLINK-2404 )

导读 | 星芒AI

STARLINK-2404 是 SpaceX Starlink 项目中的一颗低轨通信卫星,属于第二代 Starlink 卫星(Gen2)批次。该卫星于2024年发射,旨在提升全球互联网覆盖和连接速度。相比第一代,STARLINK-2404 采用更先进的激光通信技术,具备更高的数据传输能力和更低的延迟。其部署有助于增强偏远地区的网络接入,并支持未来对高带宽需求的应用。该卫星运行在约550公里高度的近地轨道,是SpaceX构建全球宽带网络的重要组成部分。

基本信息
目录编号:
48093
目录名称:
STARLINK-2404
国际标识:
2021-027B
轨道中心:
EARTH
卫星名称:
星链-2404
卫星全名:
星链-2404 (STARLINK-2404 )
卫星状态:
在轨 (已飞行1667 天)
发射日期:
2021-04-07 UTC
国别 :
美国 (US)
星等 :
--
轨道信息
数据来源 国际轨道数据
星历时间: 2025-10-30T07:31:04+0800
15小时前
查看轨道信息
半长轴: 6925.371km
偏心率: 0.0001612
轨道倾角: 53.055°
近地点辐角 91.074°
升交点赤经 28.597°
平近点角 269.043°
近地点: 546.119km
远地点: 548.353km
周期: 95.593分钟
每日圈数: 15.063927
详细信息
固有亮度:
5
最大亮度:
2.5
卫星平台:
Starlink V1.0
覆盖范围:
全球
运营商:
太空探索技术公司
运营商所在国:
美国
制造商(研发单位):
太空探索技术公司
制造商所在国:
美国
使用方式:
暂无
卫星简介
星链(Starlink)计划是由太空探索技术公司(SpaceX)提出的一个巨型低轨卫星互联网星座项目,计划在2019年至2024年间在太空搭建由约1.2万颗卫星组成的“星链”网络,其中1584颗将部署在地球上空550千米处的近地轨道,并从2020年开始工作。该卫星仍在工作。
2D轨道图
3D轨道图
轨道高度分析图
轨道倾角分析图
轨道综合分析图
查看轨道综合分析图